Weather History for Roxboro, NC

Change the Weather History Date:

Friday, November 12, 2010

  Actual Average Record
Temperature  
Mean Temperature 45 °F -  
Max Temperature 62 °F 61 °F 80 °F (2003)
Min Temperature 28 °F 37 °F 22 °F (1987)
Degree Days  
Heating Degree Days 20    
Moisture  
Dew Point 26 °F    
Average Humidity 64    
Maximum Humidity 100    
Minimum Humidity 18    
Precipitation  
Precipitation 0.00 in - - ()
Sea Level Pressure  
Sea Level Pressure 30.37 in    
Wind  
Wind Speed 2 mph (North)    
Max Wind Speed 10 mph    
Max Gust Speed -    
Visibility 10 miles    
Events      
Averages and records for this station are not official NWS values.
T = Trace of Precipitation, MM = Missing Value Source: NWS Daily Summary

Daily Weather History Graph

Daily Weather History Graph

Search for Another Location

Airport:

Trip Planner

Search our weather history database for the weather conditions in past years. The results will help you decide how hot, cold, wet, or windy it might be!

Date:

Astronomy

Nov. 12, 2010 Rise Set
Actual Time 6:49 AM EST 5:09 PM EST
Civil Twilight 6:22 AM EST 5:37 PM EST
Nautical Twilight 5:51 AM EST 6:07 PM EST
Astronomical Twilight 5:21 AM EST 6:38 PM EST
Moon 12:19 PM EST (11/12) 11:13 PM EST (11/12)
Length of Visible Light 11h 14m
Length of Day
10h 19m
Waxing Crescent, 41% of the Moon is Illuminated
Nov 12
Waxing Crescent
Nov 13
First Quarter
Nov 21
Full
Nov 28
Last Quarter
Dec 5
New

Hourly Weather History & Observations

Time (EST) Temp. Windchill Dew Point Humidity Pressure Visibility Wind Dir Wind Speed Gust Speed Precip Events Conditions
12:23 AM 33.8 °F - 32.0 °F 93% 30.40 in 10.0 mi Calm Calm - N/A   Clear
1:03 AM 32.0 °F - 32.0 °F 100% 30.40 in 10.0 mi Calm Calm - N/A   Clear
1:45 AM 32.0 °F - 32.0 °F 100% 30.39 in 7.0 mi Calm Calm - N/A   Clear
2:43 AM 30.2 °F - 30.2 °F 100% 30.40 in 10.0 mi Calm Calm - N/A   Clear
3:23 AM 30.2 °F - 30.2 °F 100% 30.40 in 10.0 mi Calm Calm - N/A   Clear
4:44 AM 28.4 °F - 28.4 °F 100% 30.40 in 10.0 mi Calm Calm - N/A   Clear
5:05 AM 28.4 °F - 28.4 °F 100% 30.40 in 10.0 mi Calm Calm - N/A   Clear
5:23 AM 28.4 °F - 28.4 °F 100% 30.41 in 10.0 mi Calm Calm - N/A   Clear
5:43 AM 28.4 °F - 28.4 °F 100% 30.40 in 10.0 mi Calm Calm - N/A   Clear
7:03 AM 28.4 °F - 28.4 °F 100% 30.40 in 10.0 mi Calm Calm - N/A   Clear
7:22 AM 28.4 °F - 28.4 °F 100% 30.41 in 10.0 mi Calm Calm - N/A   Clear
7:43 AM 30.2 °F - 28.4 °F 93% 30.42 in 10.0 mi Calm Calm - N/A   Clear
8:04 AM 39.2 °F - 32.0 °F 75% 30.42 in 10.0 mi Calm Calm - N/A   Clear
8:27 AM 44.6 °F - 33.8 °F 66% 30.42 in 10.0 mi Calm Calm - N/A   Clear
8:45 AM 46.4 °F 45.2 °F 30.2 °F 53% 30.42 in 10.0 mi North 3.5 mph - N/A   Clear
9:03 AM 48.2 °F - 30.2 °F 50% 30.42 in 10.0 mi NNE 6.9 mph - N/A   Clear
9:43 AM 51.8 °F - 26.6 °F 38% 30.41 in 10.0 mi NNE 10.4 mph - N/A   Clear
10:43 AM 55.4 °F - 21.2 °F 26% 30.41 in 10.0 mi NNE 10.4 mph - N/A   Clear
11:05 AM 55.4 °F - 19.4 °F 25% 30.40 in 10.0 mi NNE 9.2 mph - N/A   Clear
11:23 AM 57.2 °F - 21.2 °F 25% 30.39 in 10.0 mi North 6.9 mph - N/A   Clear
11:45 AM 57.2 °F - 19.4 °F 23% 30.39 in 10.0 mi North 8.1 mph - N/A   Clear
12:06 PM 59.0 °F - 21.2 °F 23% 30.38 in 10.0 mi North 5.8 mph - N/A   Clear
12:43 PM 60.8 °F - 19.4 °F 20% 30.36 in 10.0 mi NNW 4.6 mph - N/A   Clear
1:04 PM 60.8 °F - 21.2 °F 22% 30.35 in 10.0 mi NNW 5.8 mph - N/A   Clear
1:42 PM 62.6 °F - 19.4 °F 19% 30.34 in 10.0 mi North 4.6 mph - N/A   Clear
2:03 PM 62.6 °F - 17.6 °F 18% 30.33 in 10.0 mi NNE 5.8 mph - N/A   Clear
2:45 PM 62.6 °F - 17.6 °F 18% 30.33 in 10.0 mi NNW 3.5 mph - N/A   Clear
3:03 PM 62.6 °F - 17.6 °F 18% 30.32 in 10.0 mi North 4.6 mph - N/A   Clear
6:26 PM 44.6 °F - 26.6 °F 49% 30.33 in 10.0 mi Calm Calm - N/A   Clear
6:43 PM 42.8 °F - 26.6 °F 53% 30.33 in 7.0 mi Calm Calm - N/A   Clear
7:43 PM 39.2 °F - 28.4 °F 65% 30.33 in 10.0 mi Calm Calm - N/A   Clear
8:03 PM 37.4 °F - 28.4 °F 70% 30.32 in 10.0 mi Calm Calm - N/A   Clear
8:23 PM 35.6 °F - 28.4 °F 75% 30.33 in 10.0 mi Calm Calm - N/A   Clear
9:24 PM 33.8 °F - 28.4 °F 81% 30.33 in 10.0 mi Calm Calm - N/A   Clear
10:03 PM 33.8 °F - 28.4 °F 81% 30.33 in 10.0 mi Calm Calm - N/A   Clear
10:23 PM 32.0 °F - 28.4 °F 87% 30.32 in 10.0 mi Calm Calm - N/A   Clear
10:43 PM 32.0 °F - 28.4 °F 87% 30.32 in 10.0 mi Calm Calm - N/A   Clear